STARLINK-1524, 46047

Orbit data source: Space-Track

STARLINK-1524, 46047 is a payload satellite owned by SpaceX/Seattle (US) in LEO that was launched on Fri, 07 Aug 2020 UTC via an FALCON 9 launch vehicle from the Air Force Eastern Test Range (AFETR). Payload-class satellites include a variety of spacecraft equipped with specific instruments for various scientific and technological missions. These include communications satellites like Starlink; space stations such as the ISS; scientific satellites like the Hubble; Earth observation satellites from companies like Planet Labs, Umbra, and HawkEye 360; GPS; miniature CubeSats for education and research; and military/defense satellites.

Loading next visibility...
Identifier
46047, 2020-055W
Orbit
LEO
Country
Flag of USUS
Related business
Manufacturer
SpaceX/Seattle
Mission
Operational Commercial Communications
Bus & Motor
STARLINK, Unknown motor
Mass
260 kg wet, ~248 kg dry
Launch date (UTC)
2020-08-07 (6 years ago)
Launch vehicle
FALCON 9
Launch site
Air Force Eastern Test Range (AFETR)
Object type
Payload
Rocket body
Debris
Shape & HBR
Box + 1 Pan, 10.1 m
Radar Cross Section
13.562 m², Large (>1 m²)

Expand to show TLE details & history
Last TLE update: 10 hours ago

TLE from 10 hours ago
0 STARLINK-1524
1 46047U 20055W   26125.60142444 -.00000565  00000-0 -64492-5 0  9992
2 46047  53.1600 209.4092 0001312  66.7572 293.3568 15.31709745317788
Epoch: 2026-05-05T14:26Z
TLE epoch observation values (Epoch: 2026-05-05T14:26:03.071Z)
Latitude
0.00002°
Longitude
129.42249°
Altitude
471.255 km
Speed
7.632 km/s
True Right ascension
13h 57m 38s
True Declination
0° 00' 00"
Sunlit
Object was in full shadow at epoch
Visualization orbit readout
Latitude
Unknown
Longitude
Unknown
Altitude
Unknown
Speed
Unknown
Apparent Right ascension
Unknown
Apparent Declination
Unknown
Sunlit
N/A
Visualization observer readout
Local Sidereal Time
08:06:43
Azimuth
Unknown
Elevation
Unknown
Doppler factor
Unknown
Orbital elements
Apogee altitude
471.866 km
Perigee altitude
470.069 km
Semi-major axis
6,849.105 km
Eccentricity
0.00013
Inclination
53.16°
RAAN
209.4092°
Arg. of periapsis
66.7572°
True anomaly
293.343°
Mean anomaly
293.3568°
Eccentric anomaly
293.3499°
Mean motion
3.82906 °/min
Orbital period
94.02 mins
BSTAR
-0.0000064492
Loading maneuver chart data...
Computing Atmospheric mass density...
Loading historical data...
Loading historical data...
Loading historical data...
Loading historical data...
Loading historical data...
Loading historical data...
Loading historical data...

Documentation

Showing up to 5 results
|